Location: Coed Ely
(51.5661°N, 3.4150°W)
Time: 20:11:50
(UTC+00:00)

Cosmos 1626 Rocket - Pass Details

Date: 28 January 2021
Orbit: 603 x 631 km, 82.5° (Epoch: 27 February)

Event Time Altitude Azimuth Distance (km) Brightness Sun altitude
Rises 18:22:04 0° 195° (SSW) 2,886 7.4 -13.3°
Reaches altitude 10° 18:24:17 10° 198° (SSW) 1,989 6.6 -13.6°
Maximum altitude 18:28:41 70° 282° (WNW) 672 3.9 -14.3°
Drops below altitude 10° 18:33:10 10° 7° (N) 2,020 6.0 -15.0°
Sets 18:35:26 0° 9° (N) 2,934 6.8 -15.3°
